Location: Newark
(34.6283°N, 36.0776°E)
Time: 00:59:20
(UTC+00:00)

A-11 Canister half - Pass Details

Date: 20 September 2019
Orbit: 1527 x 1682 km, 47.3° (Epoch: 13 October)

Event Time Altitude Azimuth Distance (km) Brightness Sun altitude
Rises 02:18:59 0° 252° (WSW) 4,683 - -13.7°
Reaches altitude 10° 02:22:05 10° 257° (WSW) 3,712 - -13.0°
Exits shadow 02:23:30 16° 260° (W) 3,287 10.0 -12.8°
Maximum altitude 02:31:18 57° 335° (NNW) 1,799 9.3 -11.2°
Drops below altitude 10° 02:40:50 10° 53° (NE) 3,828 12.1 -9.2°
Sets 02:44:06 0° 57° (ENE) 4,836 13.0 -8.6°
